Pearl, MS

11:29 PM CST on February 20, 2017 (GMT -0600)
Jackson-Evers International

Weather History for KJAN - March, 2015

Change the Weather History Date:

Sunday, March 22, 2015

  Actual Average Record
Temperature  
Mean Temperature 60 °F 58 °F  
Max Temperature 64 °F 70 °F 88 °F (1995)
Min Temperature 56 °F 47 °F 23 °F (1986)
Degree Days  
Heating Degree Days 5 8  
Month to date heating degree days 148 218  
Since 1 July heating degree days 2274 2210  
Cooling Degree Days 0 1  
Month to date cooling degree days 25 19  
Year to date cooling degree days 25 29  
Growing Degree Days 10 (Base 50)    
Moisture  
Dew Point 57 °F    
Average Humidity 89    
Maximum Humidity 93    
Minimum Humidity 84    
Precipitation  
Precipitation 0.53 in 0.15 in 3.37 in (1929)
Month to date precipitation 7.11 3.50  
Year to date precipitation 17.31 13.23  
Sea Level Pressure  
Sea Level Pressure 29.94 in    
Wind  
Wind Speed 6 mph (NNW)    
Max Wind Speed 13 mph    
Max Gust Speed 16 mph    
Visibility 7 miles    
Events Rain    
T = Trace of Precipitation, MM = Missing Value Source: NWS Daily Summary

Daily Weather History Graph

Daily Weather History Graph

Search for Another Location

Airport or City:

Trip Planner

Search our weather history database for the weather conditions in past years. The results will help you decide how hot, cold, wet, or windy it might be!

Date:

Astronomy

Mar. 22, 2015 Rise Set
Actual Time 7:01 AM CDT 7:13 PM CDT
Civil Twilight 6:37 AM CDT 7:37 PM CDT
Nautical Twilight 6:08 AM CDT 8:06 PM CDT
Astronomical Twilight 5:39 AM CDT 8:35 PM CDT
Moon 8:36 AM CDT (3/22) 10:03 PM CDT (3/22)
Length of Visible Light 13h 00m
Length of Day
12h 11m
Waxing Crescent, 8% of the Moon is Illuminated
Mar 22
Waxing Crescent
Mar 27
First Quarter
Apr 4
Full
Apr 11
Last Quarter
Apr 18
New

Hourly Weather History & Observations

Time (CDT) Temp. Dew Point Humidity Pressure Visibility Wind Dir Wind Speed Gust Speed Precip Events Conditions
12:54 AM 57.0 °F 55.0 °F 93% 30.05 in 10.0 mi East 4.6 mph - 0.06 in Rain Light Rain
1:15 AM 57.0 °F 55.0 °F 93% 30.05 in 9.0 mi ENE 3.5 mph - 0.02 in Rain Light Rain
1:54 AM 57.0 °F 55.0 °F 93% 30.04 in 10.0 mi ENE 4.6 mph - 0.04 in Rain Light Rain
2:45 AM 55.9 °F 55.0 °F 97% 30.03 in 2.5 mi Calm Calm - 0.14 in Rain Heavy Rain
2:54 AM 55.9 °F 54.0 °F 93% 30.02 in 5.0 mi East 5.8 mph - 0.17 in Rain Rain
3:05 AM 55.9 °F 54.0 °F 93% 30.02 in 5.0 mi East 6.9 mph - 0.04 in Rain Rain
3:22 AM 55.9 °F 54.0 °F 93% 30.01 in 5.0 mi East 5.8 mph - 0.07 in Rain Heavy Rain
3:29 AM 55.9 °F 54.0 °F 93% 30.01 in 5.0 mi East 5.8 mph - 0.10 in Rain Rain
3:47 AM 55.9 °F 55.0 °F 97% 30.00 in 6.0 mi East 4.6 mph - 0.16 in Rain Rain
3:54 AM 55.9 °F 54.0 °F 93% 29.99 in 7.0 mi East 3.5 mph - 0.17 in Rain Rain
4:51 AM 55.4 °F 53.6 °F 94% 29.98 in 4.0 mi ESE 3.5 mph - 0.07 in Rain Light Rain
4:54 AM 55.9 °F 54.0 °F 93% 29.98 in 3.0 mi East 4.6 mph - 0.07 in Rain Rain
5:52 AM 55.4 °F 53.6 °F 94% 29.96 in 10.0 mi Variable 4.6 mph - 0.03 in   Overcast
5:54 AM 55.9 °F 54.0 °F 93% 29.96 in 10.0 mi ESE 6.9 mph - 0.03 in   Overcast
6:54 AM 55.9 °F 54.0 °F 93% 29.94 in 10.0 mi ESE 5.8 mph - N/A   Overcast
7:54 AM 57.0 °F 55.0 °F 93% 29.96 in 10.0 mi ESE 4.6 mph - 0.00 in   Overcast
8:54 AM 57.0 °F 55.0 °F 93% 29.94 in 10.0 mi ESE 6.9 mph - 0.00 in Rain Light Rain
9:54 AM 57.9 °F 55.9 °F 93% 29.94 in 10.0 mi SE 9.2 mph - 0.00 in   Overcast
10:54 AM 59.0 °F 57.0 °F 93% 29.94 in 6.0 mi SSE 8.1 mph - 0.01 in Rain Light Rain
11:54 AM 61.0 °F 57.9 °F 90% 29.94 in 10.0 mi Variable 3.5 mph - 0.02 in   Overcast
12:54 PM 63.0 °F 60.1 °F 90% 29.91 in 10.0 mi NW 4.6 mph - 0.00 in   Overcast
1:38 PM 62.1 °F 60.1 °F 93% 29.90 in 2.5 mi North 3.5 mph - 0.00 in   Overcast
1:47 PM 63.0 °F 61.0 °F 93% 29.90 in 4.0 mi Calm Calm - 0.01 in   Overcast
1:54 PM 63.0 °F 60.1 °F 90% 29.89 in 6.0 mi North 3.5 mph - 0.01 in   Overcast
2:26 PM 63.0 °F 60.1 °F 90% 29.89 in 7.0 mi North 3.5 mph - N/A   Overcast
2:50 PM 62.6 °F 60.8 °F 94% 29.88 in 2.5 mi North 4.6 mph - 0.00 in Rain Light Rain
2:54 PM 63.0 °F 61.0 °F 93% 29.88 in 3.0 mi North 4.6 mph - 0.00 in Rain Light Rain
3:54 PM 63.0 °F 61.0 °F 93% 29.88 in 4.0 mi NNW 4.6 mph - 0.00 in   Overcast
4:18 PM 63.0 °F 61.0 °F 93% 29.88 in 6.0 mi North 3.5 mph - N/A   Overcast
4:54 PM 64.0 °F 61.0 °F 90% 29.88 in 9.0 mi WNW 11.5 mph - N/A   Overcast
5:09 PM 63.0 °F 61.0 °F 93% 29.89 in 6.0 mi West 5.8 mph - N/A   Overcast
5:13 PM 63.0 °F 61.0 °F 93% 29.89 in 5.0 mi WNW 6.9 mph - N/A   Overcast
5:31 PM 63.0 °F 60.1 °F 90% 29.89 in 10.0 mi WNW 8.1 mph - N/A   Overcast
5:54 PM 63.0 °F 59.0 °F 87% 29.89 in 10.0 mi West 8.1 mph - N/A   Overcast
6:01 PM 63.0 °F 59.0 °F 87% 29.90 in 10.0 mi WNW 6.9 mph - N/A   Overcast
6:54 PM 62.1 °F 57.9 °F 86% 29.90 in 10.0 mi WNW 9.2 mph - N/A   Overcast
7:09 PM 61.0 °F 57.9 °F 90% 29.90 in 10.0 mi West 9.2 mph - N/A   Overcast
7:47 PM 61.0 °F 57.0 °F 87% 29.92 in 10.0 mi WNW 8.1 mph - N/A   Overcast
7:54 PM 61.0 °F 57.0 °F 87% 29.91 in 10.0 mi WNW 6.9 mph - N/A   Overcast
8:09 PM 60.1 °F 57.0 °F 90% 29.92 in 10.0 mi West 8.1 mph - N/A   Overcast
8:32 PM 59.0 °F 57.0 °F 93% 29.93 in 5.0 mi WNW 5.8 mph - N/A   Overcast
8:39 PM 59.0 °F 57.0 °F 93% 29.93 in 7.0 mi WNW 8.1 mph - N/A   Overcast
8:52 PM 59.0 °F 57.2 °F 94% 29.94 in 5.0 mi WNW 5.8 mph - N/A   Overcast
8:54 PM 59.0 °F 57.0 °F 93% 29.93 in 4.0 mi West 6.9 mph - N/A   Overcast
9:01 PM 59.0 °F 57.0 °F 93% 29.94 in 4.0 mi WNW 5.8 mph - N/A   Overcast
9:54 PM 57.9 °F 55.9 °F 93% 29.94 in 5.0 mi West 6.9 mph - N/A   Overcast
10:22 PM 57.9 °F 55.9 °F 93% 29.95 in 10.0 mi West 4.6 mph - N/A   Overcast
10:38 PM 57.9 °F 55.9 °F 93% 29.95 in 10.0 mi West 4.6 mph - N/A   Overcast
10:54 PM 57.9 °F 55.9 °F 93% 29.94 in 10.0 mi West 5.8 mph - N/A   Overcast
11:02 PM 57.9 °F 55.9 °F 93% 29.95 in 10.0 mi West 5.8 mph - N/A   Overcast
11:54 PM 57.0 °F 55.0 °F 93% 29.95 in 10.0 mi West 5.8 mph - N/A   Overcast